SCP
0 0 0 0 0 0 0 0 0 0 0 0 0 0 -0 -0 -0 -0 0 0 0 -0 -0 0 0 -0 -0 -0 -0 0 0 0
0 0 0 0 0 0 0 0 0 0 0 0 0 0 -0 -0 -0 0 0 -0 -0 -0 -0 0 -0 -0 -0 -0 -0 -0 -0 0
0 0 0 0 0 0 0 0 0 0 -0 -0 -0 -0 -0 -0 -0 -0 -0 -0 -0 -0 -0 0 -0 -0 0 -0 -0 -0 -0 -0
0 0 -0 -0 -0 -0 0 0 0 -0 -0 -0 -0 -0 -0 -0 -0 -0 -0 -0 -0 -0 -0 -0 -0 -0 -0 -0 -0 -0 -0 -0
0 0 -0 0 -0 -0 -0 -0 -0 -0 -0 -0 -0 -0 -0 -0 -0 -0 -0 -0 -0 -0 -0 -0 -0 -0 -0 -0 -0 -0 -0 -0
0 0 0 0 0 0 0 -0 -0 -0 -0 -0 -0 0 0 0 -0 -0 -0 -0 -0 -0 -0 -0 -0 -0 -0 -0 0 0 0 -0
0 0 0 0 0 0 0 0 -0 -0 0 -0 -0 0 0 0 0 -0 0 -0 -0 -0 -0 -0 -0 0 0 0 0 0 0 0
0 0 0 0 0 0 0 0 0 0 0 0 0 0 0 0 0 0 0 0 0 0 0 0 0 0 -0 0 0 0 0 0
0 0 0 0 0 0 0 0 0 0 0 0 0 0 0 0 0 0 0 0 0 0 0 0 -0 -0 -0 0 0 0 0 0
0 0 0 0 0 0 0 0 0 0 0 0 0 0 0 0 0 0 0 0 0 0 0 0 0 0 0 0 0 0 0 0
0 0 0 0 0 -0 0 0 0 0 0 0 0 0 0 0 0 0 0 0 0 0 0 0 0 0 0 0 0 0 0 0
0 0 0 0 0 0 0 0 0 0 0 0 0 0 0 0 0 0 0 0 0 0 0 0 0 0 0 0 0 0 0 0
0 0 0 0 0 0 0 0 0 0 0 0 0 0 0 0 0 0 0 0 0 0 0 0 0 0 0 0 0 0 0 0
0 0 0 0 0 0 0 0 0 0 0 0 0 0 0 0 0 0 0 0 0 0 0 0 0 0 0 0 0 0 0 0
0 0 0 0 0 0 0 0 0 0 0 0 0 0 0 0 0 0 0 0 0 0 0 0 0 0 0 0 0 0 0 0
0 0 0 0 0 0 0 0 0 0 0 0 0 0 0 0 0 0 0 0 0 0 0 0 0 0 0 0 0 0 0 0
0 0 0 0 0 0 0 0 0 0 0 0 0 0 0 0 0 0 0 0 0 0 0 0 0 0 0 0 0 0 0 0
0 0 0 0 0 0 0 0 0 0 0 0 0 0 0 0 0 0 0 0 0 0 0 0 0 0 0 0 0 0 0 0
0 0 0 0 0 0 0 0 0 0 0 0 0 0 0 0 0 0 0 0 0 0 0 0 0 0 0 0 0 0 0 0
Wind_Speed_500mb
38 38 40 39 37 38 39 37 35 34 30 26 26 26 25 23 21 18 14 10 8 6 7 8 9 10 11 13 16 17 19 22
38 37 38 37 36 36 37 35 33 31 28 25 23 23 22 20 18 15 12 10 7 6 6 7 8 9 12 13 15 16 18 21
36 36 35 33 33 33 33 32 30 27 25 24 22 20 18 17 16 14 11 8 6 5 5 6 7 8 12 13 15 16 17 21
33 34 34 32 31 29 30 29 28 26 24 22 19 18 17 16 14 12 8 4 4 2 3 4 5 6 9 12 14 13 14 17
35 34 32 33 31 31 31 30 28 25 23 21 20 19 17 15 14 11 7 5 4 5 8 9 9 9 8 8 12 13 16 15
33 32 31 32 31 31 31 30 27 26 25 23 21 19 17 17 15 14 13 10 9 8 10 11 12 12 11 12 14 13 17 13
31 30 29 27 28 27 27 26 25 24 24 23 22 20 18 18 17 15 13 14 14 14 14 15 15 17 16 14 14 16 16 14
30 29 28 26 24 24 23 23 23 24 23 22 21 20 19 18 19 18 17 18 20 21 21 22 25 26 26 24 21 19 19 19
29 27 27 24 22 21 20 20 19 21 21 22 20 20 19 18 18 20 23 24 25 26 27 29 32 34 36 36 35 33 31 29
29 28 27 26 23 19 17 15 16 18 19 19 20 21 22 23 24 24 24 25 25 26 27 30 32 35 39 42 41 42 41 38
27 26 25 28 29 25 20 18 16 19 22 24 26 28 28 29 30 30 30 29 29 31 33 36 38 38 37 36 37 38 40 44
29 27 26 25 25 28 25 23 21 20 19 19 20 20 21 21 22 25 26 27 29 32 35 37 39 41 43 45 44 43 42 38
28 27 28 26 26 26 25 24 23 23 23 22 20 22 20 20 22 23 26 28 28 29 34 39 43 46 50 52 49 45 44 45
26 27 26 27 28 28 28 28 27 25 23 22 20 19 21 22 22 24 26 28 33 38 43 46 47 48 51 49 46 40 38 34
21 23 25 24 26 26 25 25 24 22 22 19 19 18 19 21 22 25 30 34 36 37 33 32 31 34 36 38 35 28 23 21
20 22 23 30 31 31 30 30 29 27 24 20 18 19 20 25 31 29 22 19 21 18 18 19 21 22 25 28 23 18 15 2
19 18 21 24 26 30 29 27 26 24 22 19 17 16 14 12 12 11 10 10 13 15 16 18 20 22 24 27 27 16 6 6
17 16 17 18 21 23 23 23 23 21 18 13 9 5 1 2 2 4 8 11 12 15 18 22 24 26 28 27 27 19 7 5
22 19 17 17 17 19 19 18 18 17 16 13 10 9 10 8 9 9 11 12 14 16 18 22 24 26 26 28 29 28 21 17
Wind_Direction_500mb
154 146 144 150 154 152 145 144 144 143 138 132 129 127 124 123 125 128 124 120 110 88 64 59 48 32 27 31 31 26 17 16
151 144 146 149 152 150 146 145 147 145 143 139 136 132 130 129 131 132 128 118 98 72 49 27 15 3 356 4 12 12 11 10
152 148 145 148 148 148 148 147 149 151 151 148 146 142 138 137 136 130 120 107 85 45 28 4 349 336 335 343 353 7 18 16
153 151 151 150 148 151 151 152 155 156 157 156 157 153 153 151 145 138 140 127 99 26 352 313 310 301 318 339 343 352 352 354
159 158 159 156 160 159 158 160 162 163 163 167 167 169 169 164 158 161 172 213 292 320 327 325 320 316 319 344 345 347 352 355
164 166 166 165 167 167 166 168 172 173 175 181 184 185 187 180 182 187 210 231 276 309 332 338 348 346 347 353 347 326 332 340
168 172 174 173 174 174 175 177 181 185 191 195 198 202 205 207 218 223 238 253 278 296 313 326 333 338 341 343 344 342 333 325
170 173 176 177 179 181 186 189 193 200 204 210 213 219 222 232 236 241 254 267 274 283 293 301 310 313 320 325 320 315 313 312
166 171 174 177 180 187 191 196 206 213 220 225 229 231 237 243 250 263 272 278 280 281 286 293 297 302 305 304 304 304 301 299
166 171 180 186 192 199 203 202 208 211 219 226 231 238 247 254 263 272 280 285 288 291 294 298 302 304 302 298 295 297 297 295
175 179 194 205 210 213 221 221 224 228 231 236 241 247 252 257 263 270 277 282 286 293 296 300 305 308 307 305 305 301 296 295
187 188 191 201 210 213 218 218 221 227 232 237 242 245 248 253 260 267 275 282 287 291 293 298 301 302 302 301 299 298 298 299
195 199 198 196 201 207 212 213 219 225 230 234 235 248 255 264 269 273 278 283 287 291 293 293 295 295 294 295 297 299 296 294
209 212 209 205 205 213 214 216 221 223 223 228 230 236 249 258 264 271 277 282 289 293 295 297 299 301 300 300 302 304 302 297
209 213 224 232 231 229 226 229 229 227 232 235 240 248 255 264 273 281 283 288 290 293 298 302 307 309 311 315 322 320 314 294
214 217 218 220 221 223 224 223 225 229 236 245 259 269 276 279 284 283 288 301 309 316 326 334 331 328 328 329 336 346 333 358
212 215 216 216 214 215 217 222 224 225 224 232 241 255 268 284 290 304 322 337 354 1 10 15 19 18 13 12 13 25 23 338
190 192 198 199 203 209 211 213 211 211 213 221 231 246 236 37 65 35 36 34 23 19 18 17 18 20 22 19 25 37 31 14
179 180 180 180 182 184 187 199 212 221 220 204 170 137 102 88 68 51 39 29 21 20 19 17 21 27 33 32 28 30 28 12
Wind_Speed_850mb
38 38 40 39 37 38 39 37 35 34 30 26 26 26 25 23 21 18 14 10 8 6 7 8 9 10 11 13 16 17 19 22
38 37 38 37 36 36 37 35 33 31 28 25 23 23 22 20 18 15 12 10 7 6 6 7 8 9 12 13 15 16 18 21
36 36 35 33 33 33 33 32 30 27 25 24 22 20 18 17 16 14 11 8 6 5 5 6 7 8 12 13 15 16 17 21
33 34 34 32 31 29 30 29 28 26 24 22 19 18 17 16 14 12 8 4 4 2 3 4 5 6 9 12 14 13 14 17
35 34 32 33 31 31 31 30 28 25 23 21 20 19 17 15 14 11 7 5 4 5 8 9 9 9 8 8 12 13 16 15
33 32 31 32 31 31 31 30 27 26 25 23 21 19 17 17 15 14 13 10 9 8 10 11 12 12 11 12 14 13 17 13
31 30 29 27 28 27 27 26 25 24 24 23 22 20 18 18 17 15 13 14 14 14 14 15 15 17 16 14 14 16 16 14
30 29 28 26 24 24 23 23 23 24 23 22 21 20 19 18 19 18 17 18 20 21 21 22 25 26 26 24 21 19 19 19
29 27 27 24 22 21 20 20 19 21 21 22 20 20 19 18 18 20 23 24 25 26 27 29 32 34 36 36 35 33 31 29
29 28 27 26 23 19 17 15 16 18 19 19 20 21 22 23 24 24 24 25 25 26 27 30 32 35 39 42 41 42 41 38
27 26 25 28 29 25 20 18 16 19 22 24 26 28 28 29 30 30 30 29 29 31 33 36 38 38 37 36 37 38 40 44
29 27 26 25 25 28 25 23 21 20 19 19 20 20 21 21 22 25 26 27 29 32 35 37 39 41 43 45 44 43 42 38
28 27 28 26 26 26 25 24 23 23 23 22 20 22 20 20 22 23 26 28 28 29 34 39 43 46 50 52 49 45 44 45
26 27 26 27 28 28 28 28 27 25 23 22 20 19 21 22 22 24 26 28 33 38 43 46 47 48 51 49 46 40 38 34
21 23 25 24 26 26 25 25 24 22 22 19 19 18 19 21 22 25 30 34 36 37 33 32 31 34 36 38 35 28 23 21
20 22 23 30 31 31 30 30 29 27 24 20 18 19 20 25 31 29 22 19 21 18 18 19 21 22 25 28 23 18 15 2
19 18 21 24 26 30 29 27 26 24 22 19 17 16 14 12 12 11 10 10 13 15 16 18 20 22 24 27 27 16 6 6
17 16 17 18 21 23 23 23 23 21 18 13 9 5 1 2 2 4 8 11 12 15 18 22 24 26 28 27 27 19 7 5
22 19 17 17 17 19 19 18 18 17 16 13 10 9 10 8 9 9 11 12 14 16 18 22 24 26 26 28 29 28 21 17
Wind_Direction_850mb
154 146 144 150 154 152 145 144 144 143 138 132 129 127 124 123 125 128 124 120 110 88 64 59 48 32 27 31 31 26 17 16
151 144 146 149 152 150 146 145 147 145 143 139 136 132 130 129 131 132 128 118 98 72 49 27 15 3 356 4 12 12 11 10
152 148 145 148 148 148 148 147 149 151 151 148 146 142 138 137 136 130 120 107 85 45 28 4 349 336 335 343 353 7 18 16
153 151 151 150 148 151 151 152 155 156 157 156 157 153 153 151 145 138 140 127 99 26 352 313 310 301 318 339 343 352 352 354
159 158 159 156 160 159 158 160 162 163 163 167 167 169 169 164 158 161 172 213 292 320 327 325 320 316 319 344 345 347 352 355
164 166 166 165 167 167 166 168 172 173 175 181 184 185 187 180 182 187 210 231 276 309 332 338 348 346 347 353 347 326 332 340
168 172 174 173 174 174 175 177 181 185 191 195 198 202 205 207 218 223 238 253 278 296 313 326 333 338 341 343 344 342 333 325
170 173 176 177 179 181 186 189 193 200 204 210 213 219 222 232 236 241 254 267 274 283 293 301 310 313 320 325 320 315 313 312
166 171 174 177 180 187 191 196 206 213 220 225 229 231 237 243 250 263 272 278 280 281 286 293 297 302 305 304 304 304 301 299
166 171 180 186 192 199 203 202 208 211 219 226 231 238 247 254 263 272 280 285 288 291 294 298 302 304 302 298 295 297 297 295
175 179 194 205 210 213 221 221 224 228 231 236 241 247 252 257 263 270 277 282 286 293 296 300 305 308 307 305 305 301 296 295
187 188 191 201 210 213 218 218 221 227 232 237 242 245 248 253 260 267 275 282 287 291 293 298 301 302 302 301 299 298 298 299
195 199 198 196 201 207 212 213 219 225 230 234 235 248 255 264 269 273 278 283 287 291 293 293 295 295 294 295 297 299 296 294
209 212 209 205 205 213 214 216 221 223 223 228 230 236 249 258 264 271 277 282 289 293 295 297 299 301 300 300 302 304 302 297
209 213 224 232 231 229 226 229 229 227 232 235 240 248 255 264 273 281 283 288 290 293 298 302 307 309 311 315 322 320 314 294
214 217 218 220 221 223 224 223 225 229 236 245 259 269 276 279 284 283 288 301 309 316 326 334 331 328 328 329 336 346 333 358
212 215 216 216 214 215 217 222 224 225 224 232 241 255 268 284 290 304 322 337 354 1 10 15 19 18 13 12 13 25 23 338
190 192 198 199 203 209 211 213 211 211 213 221 231 246 236 37 65 35 36 34 23 19 18 17 18 20 22 19 25 37 31 14
179 180 180 180 182 184 187 199 212 221 220 204 170 137 102 88 68 51 39 29 21 20 19 17 21 27 33 32 28 30 28 12